Location: Izdebno
(52.6670°N, 16.2170°E)
Time: 10:05:25
(UTC+01:00)

Transit 2A - Pass Details

Date: 01 February 2023
Orbit: 591 x 964 km, 66.7° (Epoch: 21 March)

Event Time Altitude Azimuth Distance (km) Brightness Sun altitude
Rises 22:02:33 0° 301° (WNW) 3,265 10.0 -46.6°
Enters shadow 22:05:22 - 317° (NW) 2,453 9.2 -46.9°
Reaches altitude 10° 22:05:33 10° 318° (NW) 2,409 - -46.9°
Maximum altitude 22:09:38 20° 5° (N) 1,881 - -47.4°
Drops below altitude 10° 22:13:58 10° 52° (NE) 2,582 - -47.8°
Sets 22:17:18 0° 69° (ENE) 3,577 - -48.2°
